"Sample Date","Sample Time","Sample Value","Units","Flow Rate","Number Channels","Micron Size 0","Counts/Channel 0","Micron Size 1","Counts/Channel 1","Micron Size 2","Counts/Channel 2","Micron Size 3","Counts/Channel 3","Micron Size 4","Counts/Channel 4","Micron Size 5","Counts/Channel 5","Micron Size 6","Counts/Channel 6","Micron Size 7","Counts/Channel 7","Micron Size 8","Counts/Channel 8","Micron Size 9","Counts/Channel 9","Micron Size 10","Counts/Channel 10","Micron Size 11","Counts/Channel 11","Micron Size 12","Counts/Channel 12","Micron Size 13","Counts/Channel 13","Micron Size 14","Counts/Channel 14","Micron Size 15","Counts/Channel 15","Micron Size 16","Counts/Channel 16","Micron Size 17","Counts/Channel 17","Micron Size 18","Counts/Channel 18","Micron Size 19","Counts/Channel 19","Micron Size 20","Counts/Channel 20","Micron Size 21","Counts/Channel 21","Micron Size 22","Counts/Channel 22","Micron Size 23","Counts/Channel 23","Micron Size 24","Counts/Channel 24","Micron Size 25","Counts/Channel 25","Micron Size 26","Counts/Channel 26","Micron Size 27","Counts/Channel 27","Micron Size 28","Counts/Channel 28","Micron Size 29","Counts/Channel 29","Micron Size 30","Counts/Channel 30","Micron Size 31","Counts/Channel 31"
"05/12/08","06:00:04",11723.000,"cc",28317.504,6,0.100,9807.000,0.200,1785.000,0.300,126.000,0.500,5.000,1.000,0,5.000,0
"05/12/08","06:00:10",11137.000,"cc",28290.592,6,0.100,9297.000,0.200,1712.000,0.300,122.000,0.500,5.000,1.000,1.000,5.000,0
"05/12/08","06:00:16",12435.000,"cc",28285.424,6,0.100,10440.000,0.200,1820.000,0.300,166.000,0.500,9.000,1.000,0,5.000,0
"05/12/08","06:00:22",12344.000,"cc",28328.455,6,0.100,10313.000,0.200,1881.000,0.300,138.000,0.500,11.000,1.000,1.000,5.000,0
"05/12/08","06:00:28",13169.000,"cc",28274.313,6,0.100,11060.000,0.200,1957.000,0.300,144.000,0.500,8.000,1.000,0,5.000,0
"05/12/08","06:00:34",8345.000,"cc",28353.066,6,0.100,6950.000,0.200,1288.000,0.300,100.000,0.500,7.000,1.000,0,5.000,0
"05/12/08","06:00:40",14063.000,"cc",28321.596,6,0.100,11812.000,0.200,2080.000,0.300,161.000,0.500,9.000,1.000,1.000,5.000,0
"05/12/08","06:00:46",14028.000,"cc",28319.547,6,0.100,11790.000,0.200,2057.000,0.300,165.000,0.500,15.000,1.000,1.000,5.000,0
"05/12/08","06:00:52",11636.000,"cc",28294.697,6,0.100,9677.000,0.200,1815.000,0.300,131.000,0.500,11.000,1.000,2.000,5.000,0
"05/12/08","06:00:58",8419.000,"cc",28356.641,6,0.100,7016.000,0.200,1280.000,0.300,108.000,0.500,15.000,1.000,0,5.000,0
"05/12/08","06:01:04",14762.000,"cc",28297.279,6,0.100,12303.000,0.200,2249.000,0.300,190.000,0.500,19.000,1.000,1.000,5.000,0
"05/12/08","06:01:10",15704.000,"cc",28369.404,6,0.100,13232.000,0.200,2282.000,0.300,179.000,0.500,10.000,1.000,1.000,5.000,0
"05/12/08","06:01:16",11603.000,"cc",28319.356,6,0.100,9724.000,0.200,1748.000,0.300,123.000,0.500,8.000,1.000,0,5.000,0
"05/12/08","06:01:22",18493.000,"cc",28313.385,6,0.100,15551.000,0.200,2718.000,0.300,216.000,0.500,8.000,1.000,0,5.000,0
"05/12/08","06:01:28",9157.000,"cc",28278.238,6,0.100,7705.000,0.200,1332.000,0.300,113.000,0.500,6.000,1.000,1.000,5.000,0
"05/12/08","06:01:34",11748.000,"cc",28294.029,6,0.100,9836.000,0.200,1770.000,0.300,132.000,0.500,9.000,1.000,1.000,5.000,0
"05/12/08","06:01:40",8761.000,"cc",28296.400,6,0.100,7357.000,0.200,1274.000,0.300,114.000,0.500,16.000,1.000,0,5.000,0
"05/12/08","06:01:46",10306.000,"cc",28323.580,6,0.100,8656.000,0.200,1518.000,0.300,119.000,0.500,13.000,1.000,0,5.000,0
"05/12/08","06:01:52",9739.000,"cc",28342.348,6,0.100,8121.000,0.200,1504.000,0.300,107.000,0.500,7.000,1.000,0,5.000,0
"05/12/08","06:01:58",10908.000,"cc",28310.602,6,0.100,9081.000,0.200,1701.000,0.300,115.000,0.500,11.000,1.000,0,5.000,0
"05/12/08","06:02:04",8489.000,"cc",28300.752,6,0.100,7093.000,0.200,1276.000,0.300,111.000,0.500,8.000,1.000,1.000,5.000,0
"05/12/08","06:02:10",7195.000,"cc",28391.348,6,0.100,5952.000,0.200,1130.000,0.300,102.000,0.500,11.000,1.000,0,5.000,0
"05/12/08","06:02:16",8741.000,"cc",28346.654,6,0.100,7324.000,0.200,1299.000,0.300,110.000,0.500,8.000,1.000,0,5.000,0
"05/12/08","06:02:22",11894.000,"cc",28263.750,6,0.100,9882.000,0.200,1850.000,0.300,149.000,0.500,11.000,1.000,2.000,5.000,0
"05/12/08","06:02:28",11223.000,"cc",28285.387,6,0.100,9363.000,0.200,1709.000,0.300,133.000,0.500,18.000,1.000,0,5.000,0
"05/12/08","06:02:34",16178.000,"cc",28341.725,6,0.100,13444.000,0.200,2508.000,0.300,215.000,0.500,10.000,1.000,1.000,5.000,0
"05/12/08","06:02:40",18131.000,"cc",28308.416,6,0.100,15167.000,0.200,2728.000,0.300,226.000,0.500,10.000,1.000,0,5.000,0
"05/12/08","06:02:46",11197.000,"cc",28328.438,6,0.100,9367.000,0.200,1702.000,0.300,123.000,0.500,5.000,1.000,0,5.000,0
"05/12/08","06:02:52",17684.000,"cc",28327.643,6,0.100,14904.000,0.200,2580.000,0.300,194.000,0.500,5.000,1.000,1.000,5.000,0
"05/12/08","06:02:58",13623.000,"cc",28262.074,6,0.100,11379.000,0.200,2077.000,0.300,161.000,0.500,6.000,1.000,0,5.000,0
"05/12/08","06:03:04",11188.000,"cc",28306.898,6,0.100,9425.000,0.200,1634.000,0.300,124.000,0.500,5.000,1.000,0,5.000,0
"05/12/08","06:03:10",8561.000,"cc",28369.984,6,0.100,7092.000,0.200,1355.000,0.300,106.000,0.500,8.000,1.000,0,5.000,0
"05/12/08","06:03:16",11787.000,"cc",28312.451,6,0.100,9898.000,0.200,1756.000,0.300,126.000,0.500,7.000,1.000,0,5.000,0
"05/12/08","06:03:22",12419.000,"cc",28279.125,6,0.100,10406.000,0.200,1832.000,0.300,175.000,0.500,6.000,1.000,0,5.000,0
"05/12/08","06:03:28",7993.000,"cc",28292.285,6,0.100,6615.000,0.200,1258.000,0.300,114.000,0.500,6.000,1.000,0,5.000,0
"05/12/08","06:03:34",7463.000,"cc",28352.322,6,0.100,6158.000,0.200,1205.000,0.300,93.000,0.500,7.000,1.000,0,5.000,0
"05/12/08","06:03:40",11308.000,"cc",28346.670,6,0.100,9399.000,0.200,1750.000,0.300,149.000,0.500,10.000,1.000,0,5.000,0
"05/12/08","06:03:46",13138.000,"cc",28353.666,6,0.100,11031.000,0.200,1934.000,0.300,160.000,0.500,12.000,1.000,1.000,5.000,0
"05/12/08","06:03:52",10988.000,"cc",28310.824,6,0.100,9160.000,0.200,1692.000,0.300,129.000,0.500,7.000,1.000,0,5.000,0
"05/12/08","06:03:58",15076.000,"cc",28296.801,6,0.100,12674.000,0.200,2245.000,0.300,151.000,0.500,6.000,1.000,0,5.000,0
"05/12/08","06:04:04",15457.000,"cc",28350.982,6,0.100,13012.000,0.200,2265.000,0.300,179.000,0.500,1.000,1.000,0,5.000,0
"05/12/08","06:04:10",11031.000,"cc",28316.313,6,0.100,9263.000,0.200,1630.000,0.300,126.000,0.500,12.000,1.000,0,5.000,0
"05/12/08","06:04:16",9803.000,"cc",28300.018,6,0.100,8188.000,0.200,1502.000,0.300,108.000,0.500,5.000,1.000,0,5.000,0
"05/12/08","06:04:22",9398.000,"cc",28294.930,6,0.100,7860.000,0.200,1418.000,0.300,111.000,0.500,8.000,1.000,1.000,5.000,0
"05/12/08","06:04:28",8581.000,"cc",28311.629,6,0.100,7145.000,0.200,1340.000,0.300,93.000,0.500,3.000,1.000,0,5.000,0
"05/12/08","06:04:34",7002.000,"cc",28345.027,6,0.100,5799.000,0.200,1096.000,0.300,102.000,0.500,5.000,1.000,0,5.000,0
"05/12/08","06:04:40",11241.000,"cc",28329.092,6,0.100,9414.000,0.200,1692.000,0.300,128.000,0.500,7.000,1.000,0,5.000,0
"05/12/08","06:04:46",11005.000,"cc",28332.635,6,0.100,9154.000,0.200,1736.000,0.300,109.000,0.500,5.000,1.000,1.000,5.000,0
"05/12/08","06:04:52",12601.000,"cc",28272.311,6,0.100,10581.000,0.200,1858.000,0.300,153.000,0.500,8.000,1.000,1.000,5.000,0
"05/12/08","06:04:58",6411.000,"cc",28315.736,6,0.100,5350.000,0.200,987.000,0.300,70.000,0.500,4.000,1.000,0,5.000,0
"05/12/08","06:05:04",5369.000,"cc",28310.824,6,0.100,4486.000,0.200,811.000,0.300,64.000,0.500,8.000,1.000,0,5.000,0
"05/12/08","06:05:10",6725.000,"cc",28321.656,6,0.100,5646.000,0.200,999.000,0.300,75.000,0.500,5.000,1.000,0,5.000,0
"05/12/08","06:05:16",4828.000,"cc",28356.602,6,0.100,4027.000,0.200,734.000,0.300,61.000,0.500,6.000,1.000,0,5.000,0
"05/12/08","06:05:22",6448.000,"cc",28280.982,6,0.100,5346.000,0.200,1016.000,0.300,77.000,0.500,9.000,1.000,0,5.000,0
"05/12/08","06:05:28",5649.000,"cc",28286.645,6,0.100,4688.000,0.200,874.000,0.300,81.000,0.500,6.000,1.000,0,5.000,0
"05/12/08","06:05:34",5203.000,"cc",28334.668,6,0.100,4318.000,0.200,813.000,0.300,62.000,0.500,10.000,1.000,0,5.000,0
"05/12/08","06:05:40",6836.000,"cc",28314.721,6,0.100,5720.000,0.200,1007.000,0.300,95.000,0.500,13.000,1.000,1.000,5.000,0
"05/12/08","06:05:46",8657.000,"cc",28287.820,6,0.100,7153.000,0.200,1362.000,0.300,132.000,0.500,9.000,1.000,1.000,5.000,0
"05/12/08","06:05:52",7989.000,"cc",28351.918,6,0.100,6650.000,0.200,1218.000,0.300,110.000,0.500,10.000,1.000,1.000,5.000,0
"05/12/08","06:05:58",5634.000,"cc",28319.180,6,0.100,4689.000,0.200,864.000,0.300,72.000,0.500,9.000,1.000,0,5.000,0
"05/12/08","06:06:04",6680.000,"cc",28305.270,6,0.100,5526.000,0.200,1072.000,0.300,78.000,0.500,4.000,1.000,0,5.000,0
"05/12/08","06:06:10",10790.000,"cc",28287.537,6,0.100,8984.000,0.200,1656.000,0.300,137.000,0.500,13.000,1.000,0,5.000,0
"05/12/08","06:06:16",9480.000,"cc",28335.807,6,0.100,7924.000,0.200,1421.000,0.300,123.000,0.500,12.000,1.000,0,5.000,0
"05/12/08","06:06:22",6897.000,"cc",28264.693,6,0.100,5810.000,0.200,980.000,0.300,97.000,0.500,9.000,1.000,1.000,5.000,0
"05/12/08","06:06:28",10371.000,"cc",28334.984,6,0.100,8723.000,0.200,1517.000,0.300,121.000,0.500,8.000,1.000,2.000,5.000,0
"05/12/08","06:06:34",7966.000,"cc",28329.512,6,0.100,6679.000,0.200,1180.000,0.300,93.000,0.500,13.000,1.000,1.000,5.000,0
"05/12/08","06:06:40",6237.000,"cc",28329.658,6,0.100,5166.000,0.200,980.000,0.300,81.000,0.500,10.000,1.000,0,5.000,0
"05/12/08","06:06:46",5095.000,"cc",28329.492,6,0.100,4227.000,0.200,778.000,0.300,79.000,0.500,11.000,1.000,0,5.000,0
"05/12/08","06:06:52",5421.000,"cc",28337.393,6,0.100,4551.000,0.200,797.000,0.300,68.000,0.500,4.000,1.000,1.000,5.000,0
"05/12/08","06:06:58",4110.000,"cc",28298.219,6,0.100,3352.000,0.200,697.000,0.300,54.000,0.500,7.000,1.000,0,5.000,0
"05/12/08","06:07:04",5611.000,"cc",28332.270,6,0.100,4659.000,0.200,883.000,0.300,64.000,0.500,5.000,1.000,0,5.000,0
"05/12/08","06:07:10",4701.000,"cc",28309.994,6,0.100,3883.000,0.200,746.000,0.300,63.000,0.500,9.000,1.000,0,5.000,0
"05/12/08","06:07:16",5565.000,"cc",28335.738,6,0.100,4638.000,0.200,848.000,0.300,68.000,0.500,9.000,1.000,2.000,5.000,0
"05/12/08","06:07:22",18657.000,"cc",28332.016,6,0.100,15911.000,0.200,2571.000,0.300,155.000,0.500,19.000,1.000,1.000,5.000,0
"05/12/08","06:07:28",15294.000,"cc",28275.863,6,0.100,13022.000,0.200,2143.000,0.300,110.000,0.500,18.000,1.000,1.000,5.000,0
"05/12/08","06:07:34",18346.000,"cc",28342.953,6,0.100,15690.000,0.200,2468.000,0.300,166.000,0.500,22.000,1.000,0,5.000,0
"05/12/08","06:07:40",15873.000,"cc",28314.785,6,0.100,13477.000,0.200,2231.000,0.300,150.000,0.500,15.000,1.000,0,5.000,0
"05/12/08","06:07:46",11256.000,"cc",28279.490,6,0.100,9495.000,0.200,1617.000,0.300,132.000,0.500,11.000,1.000,1.000,5.000,0
"05/12/08","06:07:52",16508.000,"cc",28318.570,6,0.100,14118.000,0.200,2210.000,0.300,164.000,0.500,16.000,1.000,0,5.000,0
"05/12/08","06:07:58",12357.000,"cc",28320.508,6,0.100,10464.000,0.200,1771.000,0.300,112.000,0.500,10.000,1.000,0,5.000,0
"05/12/08","06:08:04",16403.000,"cc",28294.014,6,0.100,13932.000,0.200,2283.000,0.300,165.000,0.500,23.000,1.000,0,5.000,0
"05/12/08","06:08:10",6776.000,"cc",28364.315,6,0.100,5711.000,0.200,988.000,0.300,70.000,0.500,6.000,1.000,1.000,5.000,0
"05/12/08","06:08:16",6948.000,"cc",28318.873,6,0.100,5768.000,0.200,1078.000,0.300,93.000,0.500,7.000,1.000,2.000,5.000,0
"05/12/08","06:08:22",17895.000,"cc",28271.387,6,0.100,15196.000,0.200,2515.000,0.300,171.000,0.500,13.000,1.000,0,5.000,0
"05/12/08","06:08:28",16787.000,"cc",28325.057,6,0.100,14305.000,0.200,2326.000,0.300,142.000,0.500,14.000,1.000,0,5.000,0
"05/12/08","06:08:34",8669.000,"cc",28337.953,6,0.100,7317.000,0.200,1262.000,0.300,84.000,0.500,6.000,1.000,0,5.000,0
"05/12/08","06:08:40",10654.000,"cc",28323.152,6,0.100,9051.000,0.200,1492.000,0.300,102.000,0.500,9.000,1.000,0,5.000,0
"05/12/08","06:08:46",11260.000,"cc",28311.367,6,0.100,9608.000,0.200,1559.000,0.300,84.000,0.500,8.000,1.000,1.000,5.000,0
"05/12/08","06:08:52",7359.000,"cc",28349.731,6,0.100,6226.000,0.200,1045.000,0.300,80.000,0.500,8.000,1.000,0,5.000,0
"05/12/08","06:08:58",8920.000,"cc",28331.523,6,0.100,7542.000,0.200,1266.000,0.300,99.000,0.500,13.000,1.000,0,5.000,0
"05/12/08","06:09:04",8063.000,"cc",28262.088,6,0.100,6798.000,0.200,1175.000,0.300,83.000,0.500,5.000,1.000,2.000,5.000,0
"05/12/08","06:09:10",9046.000,"cc",28343.125,6,0.100,7646.000,0.200,1294.000,0.300,95.000,0.500,11.000,1.000,0,5.000,0
"05/12/08","06:09:16",8442.000,"cc",28343.773,6,0.100,7156.000,0.200,1204.000,0.300,73.000,0.500,9.000,1.000,0,5.000,0
"05/12/08","06:09:22",8773.000,"cc",28285.445,6,0.100,7416.000,0.200,1255.000,0.300,93.000,0.500,9.000,1.000,0,5.000,0
"05/12/08","06:09:28",11080.000,"cc",28257.516,6,0.100,9373.000,0.200,1585.000,0.300,115.000,0.500,6.000,1.000,1.000,5.000,0
"05/12/08","06:09:34",9626.000,"cc",28313.818,6,0.100,8141.000,0.200,1383.000,0.300,92.000,0.500,10.000,1.000,0,5.000,0
"05/12/08","06:09:40",8230.000,"cc",28376.127,6,0.100,6947.000,0.200,1195.000,0.300,78.000,0.500,10.000,1.000,0,5.000,0
"05/12/08","06:09:46",4587.000,"cc",28352.924,6,0.100,3806.000,0.200,718.000,0.300,59.000,0.500,4.000,1.000,0,5.000,0
"05/12/08","06:09:52",4523.000,"cc",28232.156,6,0.100,3816.000,0.200,627.000,0.300,66.000,0.500,14.000,1.000,0,5.000,0
"05/12/08","06:09:58",4668.000,"cc",28316.738,6,0.100,3892.000,0.200,694.000,0.300,77.000,0.500,5.000,1.000,0,5.000,0
"05/12/08","06:10:04",3933.000,"cc",28302.949,6,0.100,3243.000,0.200,629.000,0.300,60.000,0.500,1.000,1.000,0,5.000,0
"05/12/08","06:10:10",3222.000,"cc",28301.582,6,0.100,2634.000,0.200,538.000,0.300,46.000,0.500,4.000,1.000,0,5.000,0
"05/12/08","06:10:16",4048.000,"cc",28357.555,6,0.100,3389.000,0.200,611.000,0.300,43.000,0.500,5.000,1.000,0,5.000,0
"05/12/08","06:10:22",3633.000,"cc",28328.086,6,0.100,3027.000,0.200,551.000,0.300,45.000,0.500,10.000,1.000,0,5.000,0
"05/12/08","06:10:28",6192.000,"cc",28302.494,6,0.100,5175.000,0.200,913.000,0.300,93.000,0.500,11.000,1.000,0,5.000,0
"05/12/08","06:10:34",5065.000,"cc",28313.422,6,0.100,4212.000,0.200,770.000,0.300,72.000,0.500,10.000,1.000,1.000,5.000,0
"05/12/08","06:10:40",4920.000,"cc",28327.572,6,0.100,4097.000,0.200,739.000,0.300,70.000,0.500,12.000,1.000,2.000,5.000,0
"05/12/08","06:10:46",3672.000,"cc",28298.164,6,0.100,3053.000,0.200,557.000,0.300,54.000,0.500,8.000,1.000,0,5.000,0
"05/12/08","06:10:52",2995.000,"cc",28298.891,6,0.100,2451.000,0.200,502.000,0.300,34.000,0.500,6.000,1.000,2.000,5.000,0
"05/12/08","06:10:58",3232.000,"cc",28361.338,6,0.100,2684.000,0.200,501.000,0.300,38.000,0.500,9.000,1.000,0,5.000,0
"05/12/08","06:11:04",4488.000,"cc",28314.440,6,0.100,3790.000,0.200,624.000,0.300,67.000,0.500,6.000,1.000,1.000,5.000,0
"05/12/08","06:11:10",4939.000,"cc",28288.320,6,0.100,4095.000,0.200,760.000,0.300,74.000,0.500,10.000,1.000,0,5.000,0
"05/12/08","06:11:16",4122.000,"cc",28329.775,6,0.100,3440.000,0.200,607.000,0.300,67.000,0.500,8.000,1.000,0,5.000,0
"05/12/08","06:11:22",4157.000,"cc",28321.637,6,0.100,3455.000,0.200,634.000,0.300,57.000,0.500,11.000,1.000,0,5.000,0
"05/12/08","06:11:28",4473.000,"cc",28298.844,6,0.100,3701.000,0.200,689.000,0.300,73.000,0.500,10.000,1.000,0,5.000,0
"05/12/08","06:11:34",5673.000,"cc",28373.715,6,0.100,4701.000,0.200,885.000,0.300,79.000,0.500,7.000,1.000,1.000,5.000,0
"05/12/08","06:11:40",5724.000,"cc",28303.975,6,0.100,4789.000,0.200,863.000,0.300,62.000,0.500,9.000,1.000,1.000,5.000,0
"05/12/08","06:11:46",5819.000,"cc",28332.270,6,0.100,4886.000,0.200,864.000,0.300,61.000,0.500,8.000,1.000,0,5.000,0
"05/12/08","06:11:52",5436.000,"cc",28308.611,6,0.100,4524.000,0.200,842.000,0.300,63.000,0.500,7.000,1.000,0,5.000,0
"05/12/08","06:11:58",7980.000,"cc",28264.043,6,0.100,6699.000,0.200,1170.000,0.300,99.000,0.500,12.000,1.000,0,5.000,0
"05/12/08","06:12:04",7156.000,"cc",28307.119,6,0.100,5979.000,0.200,1069.000,0.300,96.000,0.500,12.000,1.000,0,5.000,0
"05/12/08","06:12:10",5024.000,"cc",28338.154,6,0.100,4214.000,0.200,723.000,0.300,74.000,0.500,13.000,1.000,0,5.000,0
"05/12/08","06:12:16",4458.000,"cc",28296.441,6,0.100,3702.000,0.200,683.000,0.300,64.000,0.500,7.000,1.000,2.000,5.000,0
"05/12/08","06:12:22",5029.000,"cc",28338.525,6,0.100,4151.000,0.200,794.000,0.300,75.000,0.500,9.000,1.000,0,5.000,0
"05/12/08","06:12:28",5098.000,"cc",28344.691,6,0.100,4255.000,0.200,777.000,0.300,58.000,0.500,8.000,1.000,0,5.000,0
"05/12/08","06:12:34",6427.000,"cc",28335.512,6,0.100,5341.000,0.200,985.000,0.300,88.000,0.500,13.000,1.000,0,5.000,0
"05/12/08","06:12:40",6838.000,"cc",28304.018,6,0.100,5774.000,0.200,966.000,0.300,88.000,0.500,10.000,1.000,0,5.000,0
"05/12/08","06:12:46",6512.000,"cc",28324.625,6,0.100,5430.000,0.200,982.000,0.300,84.000,0.500,16.000,1.000,0,5.000,0
"05/12/08","06:12:52",8360.000,"cc",28298.047,6,0.100,7030.000,0.200,1214.000,0.300,101.000,0.500,15.000,1.000,0,5.000,0
"05/12/08","06:12:58",11949.000,"cc",28291.602,6,0.100,10266.000,0.200,1572.000,0.300,98.000,0.500,13.000,1.000,0,5.000,0
"05/12/08","06:13:04",21561.000,"cc",28322.686,6,0.100,18517.000,0.200,2865.000,0.300,166.000,0.500,13.000,1.000,0,5.000,0
"05/12/08","06:13:10",15159.000,"cc",28309.502,6,0.100,13031.000,0.200,1999.000,0.300,123.000,0.500,6.000,1.000,0,5.000,0
"05/12/08","06:13:16",10630.000,"cc",28318.436,6,0.100,9049.000,0.200,1490.000,0.300,79.000,0.500,12.000,1.000,0,5.000,0
"05/12/08","06:13:22",14410.000,"cc",28289.988,6,0.100,12290.000,0.200,1994.000,0.300,118.000,0.500,8.000,1.000,0,5.000,0
"05/12/08","06:13:28",14450.000,"cc",28309.363,6,0.100,12443.000,0.200,1892.000,0.300,106.000,0.500,9.000,1.000,0,5.000,0
"05/12/08","06:13:34",23815.000,"cc",28337.397,6,0.100,20475.000,0.200,3156.000,0.300,167.000,0.500,16.000,1.000,1.000,5.000,0
"05/12/08","06:13:40",12128.000,"cc",28332.266,6,0.100,10405.000,0.200,1621.000,0.300,92.000,0.500,10.000,1.000,0,5.000,0
"05/12/08","06:13:46",12764.000,"cc",28313.328,6,0.100,10926.000,0.200,1723.000,0.300,108.000,0.500,7.000,1.000,0,5.000,0
"05/12/08","06:13:52",11765.000,"cc",28311.375,6,0.100,10000.000,0.200,1666.000,0.300,94.000,0.500,5.000,1.000,0,5.000,0
"05/12/08","06:13:58",11929.000,"cc",28345.379,6,0.100,10156.000,0.200,1678.000,0.300,84.000,0.500,10.000,1.000,1.000,5.000,0
"05/12/08","06:14:04",20101.000,"cc",28314.428,6,0.100,17210.000,0.200,2710.000,0.300,168.000,0.500,12.000,1.000,1.000,5.000,0
"05/12/08","06:14:10",21775.000,"cc",28294.473,6,0.100,18679.000,0.200,2939.000,0.300,148.000,0.500,8.000,1.000,1.000,5.000,0
"05/12/08","06:14:16",21414.000,"cc",28263.455,6,0.100,18304.000,0.200,2960.000,0.300,137.000,0.500,11.000,1.000,2.000,5.000,0
"05/12/08","06:14:22",28063.000,"cc",28348.047,6,0.100,24047.000,0.200,3764.000,0.300,233.000,0.500,19.000,1.000,0,5.000,0
"05/12/08","06:14:28",31502.000,"cc",28301.043,6,0.100,26951.000,0.200,4294.000,0.300,238.000,0.500,18.000,1.000,1.000,5.000,0
"05/12/08","06:14:34",15242.000,"cc",28333.844,6,0.100,13037.000,0.200,2078.000,0.300,116.000,0.500,11.000,1.000,0,5.000,0
"05/12/08","06:14:40",16528.000,"cc",28304.412,6,0.100,14134.000,0.200,2245.000,0.300,139.000,0.500,9.000,1.000,1.000,5.000,0
"05/12/08","06:14:46",21075.000,"cc",28284.342,6,0.100,18069.000,0.200,2833.000,0.300,162.000,0.500,11.000,1.000,0,5.000,0
"05/12/08","06:14:52",23382.000,"cc",28360.973,6,0.100,20127.000,0.200,3079.000,0.300,163.000,0.500,13.000,1.000,0,5.000,0
"05/12/08","06:14:58",14331.000,"cc",28338.484,6,0.100,12320.000,0.200,1885.000,0.300,110.000,0.500,16.000,1.000,0,5.000,0
"05/12/08","06:15:04",12079.000,"cc",28300.350,6,0.100,10332.000,0.200,1622.000,0.300,115.000,0.500,10.000,1.000,0,5.000,0
"05/12/08","06:15:10",11579.000,"cc",28292.703,6,0.100,9930.000,0.200,1558.000,0.300,77.000,0.500,14.000,1.000,0,5.000,0
"05/12/08","06:15:16",7645.000,"cc",28335.445,6,0.100,6534.000,0.200,1031.000,0.300,70.000,0.500,9.000,1.000,1.000,5.000,0
"05/12/08","06:15:22",10615.000,"cc",28293.924,6,0.100,9093.000,0.200,1391.000,0.300,111.000,0.500,20.000,1.000,0,5.000,0
"05/12/08","06:15:28",9673.000,"cc",28314.178,6,0.100,8189.000,0.200,1358.000,0.300,110.000,0.500,16.000,1.000,0,5.000,0
"05/12/08","06:15:34",11058.000,"cc",28380.104,6,0.100,9342.000,0.200,1607.000,0.300,99.000,0.500,10.000,1.000,0,5.000,0
"05/12/08","06:15:40",12124.000,"cc",28335.352,6,0.100,10312.000,0.200,1680.000,0.300,122.000,0.500,10.000,1.000,0,5.000,0
"05/12/08","06:15:46",11327.000,"cc",28306.260,6,0.100,9624.000,0.200,1579.000,0.300,113.000,0.500,10.000,1.000,1.000,5.000,0
"05/12/08","06:15:52",10740.000,"cc",28249.051,6,0.100,9132.000,0.200,1498.000,0.300,101.000,0.500,9.000,1.000,0,5.000,0
"05/12/08","06:15:58",9546.000,"cc",28340.563,6,0.100,8157.000,0.200,1298.000,0.300,81.000,0.500,10.000,1.000,0,5.000,0
"05/12/08","06:16:04",12578.000,"cc",28346.000,6,0.100,10707.000,0.200,1765.000,0.300,97.000,0.500,9.000,1.000,0,5.000,0
"05/12/08","06:16:10",14408.000,"cc",28313.209,6,0.100,12332.000,0.200,1947.000,0.300,114.000,0.500,15.000,1.000,0,5.000,0
"05/12/08","06:16:16",13672.000,"cc",28343.074,6,0.100,11563.000,0.200,1961.000,0.300,135.000,0.500,13.000,1.000,0,5.000,0
"05/12/08","06:16:22",11110.000,"cc",28295.414,6,0.100,9498.000,0.200,1489.000,0.300,104.000,0.500,17.000,1.000,2.000,5.000,0
"05/12/08","06:16:28",9601.000,"cc",28245.152,6,0.100,8134.000,0.200,1362.000,0.300,95.000,0.500,10.000,1.000,0,5.000,0
"05/12/08","06:16:34",6580.000,"cc",28298.053,6,0.100,5585.000,0.200,926.000,0.300,62.000,0.500,7.000,1.000,0,5.000,0
"05/12/08","06:16:40",8543.000,"cc",28351.775,6,0.100,7238.000,0.200,1229.000,0.300,70.000,0.500,6.000,1.000,0,5.000,0
"05/12/08","06:16:46",17476.000,"cc",28361.406,6,0.100,14976.000,0.200,2372.000,0.300,117.000,0.500,11.000,1.000,0,5.000,0
"05/12/08","06:16:52",14187.000,"cc",28315.938,6,0.100,12088.000,0.200,1964.000,0.300,125.000,0.500,9.000,1.000,1.000,5.000,0
"05/12/08","06:16:58",11120.000,"cc",28306.217,6,0.100,9460.000,0.200,1549.000,0.300,98.000,0.500,12.000,1.000,1.000,5.000,0
"05/12/08","06:17:04",16915.000,"cc",28312.090,6,0.100,14466.000,0.200,2294.000,0.300,142.000,0.500,13.000,1.000,0,5.000,0
"05/12/08","06:17:10",14363.000,"cc",28304.815,6,0.100,12343.000,0.200,1871.000,0.300,139.000,0.500,10.000,1.000,0,5.000,0
"05/12/08","06:17:16",10301.000,"cc",28351.082,6,0.100,8814.000,0.200,1390.000,0.300,88.000,0.500,9.000,1.000,0,5.000,0
"05/12/08","06:17:22",9152.000,"cc",28290.184,6,0.100,7802.000,0.200,1252.000,0.300,85.000,0.500,13.000,1.000,0,5.000,0
"05/12/08","06:17:28",6074.000,"cc",28333.385,6,0.100,5114.000,0.200,886.000,0.300,69.000,0.500,5.000,1.000,0,5.000,0
"05/12/08","06:17:34",5726.000,"cc",28332.184,6,0.100,4837.000,0.200,805.000,0.300,74.000,0.500,10.000,1.000,0,5.000,0
"05/12/08","06:17:40",8109.000,"cc",28293.193,6,0.100,6848.000,0.200,1165.000,0.300,83.000,0.500,13.000,1.000,0,5.000,0
"05/12/08","06:17:46",8430.000,"cc",28338.416,6,0.100,7247.000,0.200,1113.000,0.300,62.000,0.500,8.000,1.000,0,5.000,0
"05/12/08","06:17:52",7909.000,"cc",28305.352,6,0.100,6745.000,0.200,1079.000,0.300,75.000,0.500,10.000,1.000,0,5.000,0
"05/12/08","06:17:58",9674.000,"cc",28291.693,6,0.100,8313.000,0.200,1263.000,0.300,78.000,0.500,19.000,1.000,1.000,5.000,0
"05/12/08","06:18:04",7589.000,"cc",28319.551,6,0.100,6428.000,0.200,1067.000,0.300,78.000,0.500,15.000,1.000,1.000,5.000,0
"05/12/08","06:18:10",8450.000,"cc",28328.885,6,0.100,7221.000,0.200,1127.000,0.300,91.000,0.500,11.000,1.000,0,5.000,0
"05/12/08","06:18:16",10840.000,"cc",28331.113,6,0.100,9202.000,0.200,1514.000,0.300,108.000,0.500,16.000,1.000,0,5.000,0
"05/12/08","06:18:22",6605.000,"cc",28320.035,6,0.100,5645.000,0.200,875.000,0.300,78.000,0.500,7.000,1.000,0,5.000,0
"05/12/08","06:18:28",6249.000,"cc",28331.768,6,0.100,5257.000,0.200,895.000,0.300,86.000,0.500,11.000,1.000,0,5.000,0